Year,Month,Day,Hour,Minute,Value (Times are PST for temperature in C)
2016,05,31,00,00,12.80
2016,05,31,00,01,12.80
2016,05,31,00,02,12.80
2016,05,31,00,03,12.80
2016,05,31,00,04,12.80
2016,05,31,00,05,12.80
2016,05,31,00,06,12.80
2016,05,31,00,07,12.80
2016,05,31,00,08,12.70
2016,05,31,00,09,12.70
2016,05,31,00,10,12.70
2016,05,31,00,11,12.70
2016,05,31,00,12,12.70
2016,05,31,00,13,12.70
2016,05,31,00,14,12.70
2016,05,31,00,15,12.70
2016,05,31,00,16,12.70
2016,05,31,00,17,12.70
2016,05,31,00,18,12.70
2016,05,31,00,19,12.70
2016,05,31,00,20,12.70
2016,05,31,00,21,12.70
2016,05,31,00,22,12.70
2016,05,31,00,23,12.70
2016,05,31,00,24,12.70
2016,05,31,00,25,12.70
2016,05,31,00,26,12.80
2016,05,31,00,27,12.80
2016,05,31,00,28,12.80
2016,05,31,00,29,12.80
2016,05,31,00,30,12.80
2016,05,31,00,31,12.80
2016,05,31,00,32,12.80
2016,05,31,00,33,12.80
2016,05,31,00,34,12.80
2016,05,31,00,35,12.80
2016,05,31,00,36,12.80
2016,05,31,00,37,12.80
2016,05,31,00,38,12.80
2016,05,31,00,39,12.80
2016,05,31,00,40,12.80
2016,05,31,00,41,12.80
2016,05,31,00,42,12.80
2016,05,31,00,43,12.80
2016,05,31,00,44,12.80
2016,05,31,00,45,12.80
2016,05,31,00,46,12.80
2016,05,31,00,47,12.80
2016,05,31,00,48,12.80
2016,05,31,00,49,12.80
2016,05,31,00,50,12.80
2016,05,31,00,51,12.80
2016,05,31,00,52,12.80
2016,05,31,00,53,12.80
2016,05,31,00,54,12.80
2016,05,31,00,55,12.80
2016,05,31,00,56,12.80
2016,05,31,00,57,12.80
2016,05,31,00,58,12.80
2016,05,31,00,59,12.80
2016,05,31,01,00,12.80
2016,05,31,01,01,12.70
2016,05,31,01,02,12.70
2016,05,31,01,03,12.70
2016,05,31,01,04,12.70
2016,05,31,01,05,12.70
2016,05,31,01,06,12.70
2016,05,31,01,07,12.70
2016,05,31,01,08,12.70
2016,05,31,01,09,12.70
2016,05,31,01,10,12.70
2016,05,31,01,11,12.70
2016,05,31,01,12,12.60
2016,05,31,01,13,12.60
2016,05,31,01,14,12.60
2016,05,31,01,15,12.60
2016,05,31,01,16,12.60
2016,05,31,01,17,12.60
2016,05,31,01,18,12.60
2016,05,31,01,19,12.50
2016,05,31,01,20,12.50
2016,05,31,01,21,12.50
2016,05,31,01,22,12.50
2016,05,31,01,23,12.50
2016,05,31,01,24,12.50
2016,05,31,01,25,12.40
2016,05,31,01,26,12.40
2016,05,31,01,27,12.40
2016,05,31,01,28,12.40
2016,05,31,01,29,12.40
2016,05,31,01,30,12.40
2016,05,31,01,31,12.40
2016,05,31,01,32,12.40
2016,05,31,01,33,12.40
2016,05,31,01,34,12.40
2016,05,31,01,35,12.40
2016,05,31,01,36,12.40
2016,05,31,01,37,12.40
2016,05,31,01,38,12.40
2016,05,31,01,39,12.40
2016,05,31,01,40,12.40
2016,05,31,01,41,12.40
2016,05,31,01,42,12.40
2016,05,31,01,43,12.40
2016,05,31,01,44,12.40
2016,05,31,01,45,12.40
2016,05,31,01,46,12.40
2016,05,31,01,47,12.40
2016,05,31,01,48,12.40
2016,05,31,01,49,12.50
2016,05,31,01,50,12.50
2016,05,31,01,51,12.50
2016,05,31,01,52,12.50
2016,05,31,01,53,12.50
2016,05,31,01,54,12.50
2016,05,31,01,55,12.50
2016,05,31,01,56,12.50
2016,05,31,01,57,12.50
2016,05,31,01,58,12.50
2016,05,31,01,59,12.50
2016,05,31,02,00,12.50
2016,05,31,02,01,12.50
2016,05,31,02,02,12.50
2016,05,31,02,03,12.50
2016,05,31,02,04,12.50
2016,05,31,02,05,12.50
2016,05,31,02,06,12.50
2016,05,31,02,07,12.50
2016,05,31,02,08,12.50
2016,05,31,02,09,12.60
2016,05,31,02,10,12.60
2016,05,31,02,11,12.60
2016,05,31,02,12,12.60
2016,05,31,02,13,12.60
2016,05,31,02,14,12.60
2016,05,31,02,15,12.60
2016,05,31,02,16,12.60
2016,05,31,02,17,12.60
2016,05,31,02,18,12.60
2016,05,31,02,19,12.60
2016,05,31,02,20,12.60
2016,05,31,02,21,12.60
2016,05,31,02,22,12.60
2016,05,31,02,23,12.60
2016,05,31,02,24,12.60
2016,05,31,02,25,12.60
2016,05,31,02,26,12.60
2016,05,31,02,27,12.60
2016,05,31,02,28,12.60
2016,05,31,02,29,12.60
2016,05,31,02,30,12.60
2016,05,31,02,31,12.60
2016,05,31,02,32,12.60
2016,05,31,02,33,12.60
2016,05,31,02,34,12.60
2016,05,31,02,35,12.60
2016,05,31,02,36,12.60
2016,05,31,02,37,12.60
2016,05,31,02,38,12.60
2016,05,31,02,39,12.60
2016,05,31,02,40,12.60
2016,05,31,02,41,12.60
2016,05,31,02,42,12.60
2016,05,31,02,43,12.60
2016,05,31,02,44,12.60
2016,05,31,02,45,12.50
2016,05,31,02,46,12.50
2016,05,31,02,47,12.50
2016,05,31,02,48,12.50
2016,05,31,02,49,12.50
2016,05,31,02,50,12.50
2016,05,31,02,51,12.50
2016,05,31,02,52,12.40
2016,05,31,02,53,12.40
2016,05,31,02,54,12.40
2016,05,31,02,55,12.40
2016,05,31,02,56,12.40
2016,05,31,02,57,12.40
2016,05,31,02,58,12.40
2016,05,31,02,59,12.40
2016,05,31,03,00,12.40
2016,05,31,03,01,12.40
2016,05,31,03,02,12.40
2016,05,31,03,03,12.40
2016,05,31,03,04,12.40
2016,05,31,03,05,12.40
2016,05,31,03,06,12.40
2016,05,31,03,07,12.40
2016,05,31,03,08,12.40
2016,05,31,03,09,12.40
2016,05,31,03,10,12.40
2016,05,31,03,11,12.40
2016,05,31,03,12,12.40
2016,05,31,03,13,12.40
2016,05,31,03,14,12.40
2016,05,31,03,15,12.40
2016,05,31,03,16,12.40
2016,05,31,03,17,12.40
2016,05,31,03,18,12.40
2016,05,31,03,19,12.40
2016,05,31,03,20,12.40
2016,05,31,03,21,12.40
2016,05,31,03,22,12.30
2016,05,31,03,23,12.30
2016,05,31,03,24,12.40
2016,05,31,03,25,12.40
2016,05,31,03,26,12.30
2016,05,31,03,27,12.30
2016,05,31,03,28,12.30
2016,05,31,03,29,12.30
2016,05,31,03,30,12.30
2016,05,31,03,31,12.30
2016,05,31,03,32,12.30
2016,05,31,03,33,12.30
2016,05,31,03,34,12.30
2016,05,31,03,35,12.30
2016,05,31,03,36,12.30
2016,05,31,03,37,12.30
2016,05,31,03,38,12.30
2016,05,31,03,39,12.30
2016,05,31,03,40,12.30
2016,05,31,03,41,12.30
2016,05,31,03,42,12.30
2016,05,31,03,43,12.30
2016,05,31,03,44,12.30
2016,05,31,03,45,12.30
2016,05,31,03,46,12.20
2016,05,31,03,47,12.20
2016,05,31,03,48,12.20
2016,05,31,03,49,12.20
2016,05,31,03,50,12.20
2016,05,31,03,51,12.20
2016,05,31,03,52,12.20
2016,05,31,03,53,12.20
2016,05,31,03,54,12.20
2016,05,31,03,55,12.10
2016,05,31,03,56,12.10
2016,05,31,03,57,12.10
2016,05,31,03,58,12.10
2016,05,31,03,59,12.10
2016,05,31,04,00,12.10
2016,05,31,04,01,12.10
2016,05,31,04,02,12.00
2016,05,31,04,03,12.00
2016,05,31,04,04,12.00
2016,05,31,04,05,12.00
2016,05,31,04,06,12.00
2016,05,31,04,07,12.00
2016,05,31,04,08,12.00
2016,05,31,04,09,12.00
2016,05,31,04,10,12.00
2016,05,31,04,11,11.90
2016,05,31,04,12,11.90
2016,05,31,04,13,11.90
2016,05,31,04,14,11.90
2016,05,31,04,15,11.90
2016,05,31,04,16,11.90
2016,05,31,04,17,11.90
2016,05,31,04,18,11.90
2016,05,31,04,19,11.80
2016,05,31,04,20,11.80
2016,05,31,04,21,11.80
2016,05,31,04,22,11.80
2016,05,31,04,23,11.80
2016,05,31,04,24,11.80
2016,05,31,04,25,11.80
2016,05,31,04,26,11.70
2016,05,31,04,27,11.70
2016,05,31,04,28,11.70
2016,05,31,04,29,11.70
2016,05,31,04,30,11.70
2016,05,31,04,31,11.70
2016,05,31,04,32,11.60
2016,05,31,04,33,11.60
2016,05,31,04,34,11.60
2016,05,31,04,35,11.60
2016,05,31,04,36,11.60
2016,05,31,04,37,11.60
2016,05,31,04,38,11.60
2016,05,31,04,39,11.50
2016,05,31,04,40,11.50
2016,05,31,04,41,11.50
2016,05,31,04,42,11.50
2016,05,31,04,43,11.50
2016,05,31,04,44,11.40
2016,05,31,04,45,11.40
2016,05,31,04,46,11.40
2016,05,31,04,47,11.40
2016,05,31,04,48,11.40
2016,05,31,04,49,11.30
2016,05,31,04,50,11.30
2016,05,31,04,51,11.30
2016,05,31,04,52,11.30
2016,05,31,04,53,11.20
2016,05,31,04,54,11.20
2016,05,31,04,55,11.20
2016,05,31,04,56,11.20
2016,05,31,04,57,11.20
2016,05,31,04,58,11.20
2016,05,31,04,59,11.10
2016,05,31,05,00,11.10
2016,05,31,05,01,11.10
2016,05,31,05,02,11.10
2016,05,31,05,03,11.10
2016,05,31,05,04,11.10
2016,05,31,05,05,11.00
2016,05,31,05,06,11.00
2016,05,31,05,07,11.00
2016,05,31,05,08,11.00
2016,05,31,05,09,10.90
2016,05,31,05,10,10.90
2016,05,31,05,11,10.90
2016,05,31,05,12,10.90
2016,05,31,05,13,10.90
2016,05,31,05,14,10.80
2016,05,31,05,15,10.80
2016,05,31,05,16,10.80
2016,05,31,05,17,10.80
2016,05,31,05,18,10.80
2016,05,31,05,19,10.80
2016,05,31,05,20,10.80
2016,05,31,05,21,10.80
2016,05,31,05,22,10.80
2016,05,31,05,23,10.80
2016,05,31,05,24,10.80
2016,05,31,05,25,10.80
2016,05,31,05,26,10.80
2016,05,31,05,27,10.80
2016,05,31,05,28,10.80
2016,05,31,05,29,10.80
2016,05,31,05,30,10.80
2016,05,31,05,31,10.80
2016,05,31,05,32,10.80
2016,05,31,05,33,10.80
2016,05,31,05,34,10.80
2016,05,31,05,35,10.80
2016,05,31,05,36,10.80
2016,05,31,05,37,10.80
2016,05,31,05,38,10.80
2016,05,31,05,39,10.80
2016,05,31,05,40,10.80
2016,05,31,05,41,10.80
2016,05,31,05,42,10.80
2016,05,31,05,43,10.80
2016,05,31,05,44,10.80
2016,05,31,05,45,10.70
2016,05,31,05,46,10.70
2016,05,31,05,47,10.70
2016,05,31,05,48,10.70
2016,05,31,05,49,10.70
2016,05,31,05,50,10.70
2016,05,31,05,51,10.70
2016,05,31,05,52,10.70
2016,05,31,05,53,10.70
2016,05,31,05,54,10.70
2016,05,31,05,55,10.70
2016,05,31,05,56,10.70
2016,05,31,05,57,10.70
2016,05,31,05,58,10.70
2016,05,31,05,59,10.70
2016,05,31,06,00,10.70
2016,05,31,06,01,10.70
2016,05,31,06,02,10.70
2016,05,31,06,03,10.70
2016,05,31,06,04,10.70
2016,05,31,06,05,10.70
2016,05,31,06,06,10.70
2016,05,31,06,07,10.70
2016,05,31,06,08,10.70
2016,05,31,06,09,10.70
2016,05,31,06,10,10.70
2016,05,31,06,11,10.70
2016,05,31,06,12,10.70
2016,05,31,06,13,10.80
2016,05,31,06,14,10.80
2016,05,31,06,15,10.80
2016,05,31,06,16,10.80
2016,05,31,06,17,10.80
2016,05,31,06,18,10.80
2016,05,31,06,19,10.80
2016,05,31,06,20,10.80
2016,05,31,06,21,10.80
2016,05,31,06,22,10.80
2016,05,31,06,23,10.90
2016,05,31,06,24,10.90
2016,05,31,06,25,10.90
2016,05,31,06,26,10.90
2016,05,31,06,27,10.90
2016,05,31,06,28,10.90
2016,05,31,06,29,11.00
2016,05,31,06,30,11.00
2016,05,31,06,31,11.00
2016,05,31,06,32,11.00
2016,05,31,06,33,11.00
2016,05,31,06,34,11.10
2016,05,31,06,35,11.10
2016,05,31,06,36,11.10
2016,05,31,06,37,11.10
2016,05,31,06,38,11.10
2016,05,31,06,39,11.20
2016,05,31,06,40,11.20
2016,05,31,06,41,11.20
2016,05,31,06,42,11.30
2016,05,31,06,43,11.30
2016,05,31,06,44,11.30
2016,05,31,06,45,11.30
2016,05,31,06,46,11.30
2016,05,31,06,47,11.40
2016,05,31,06,48,11.40
2016,05,31,06,49,11.40
2016,05,31,06,50,11.50
2016,05,31,06,51,11.50
2016,05,31,06,52,11.60
2016,05,31,06,53,11.60
2016,05,31,06,54,11.60
2016,05,31,06,55,11.70
2016,05,31,06,56,11.70
2016,05,31,06,57,11.70
2016,05,31,06,58,11.70
2016,05,31,06,59,11.80
2016,05,31,07,00,11.80
2016,05,31,07,01,11.80
2016,05,31,07,02,11.90
2016,05,31,07,03,11.90
2016,05,31,07,04,12.00
2016,05,31,07,05,12.10
2016,05,31,07,06,12.10
2016,05,31,07,07,12.20
2016,05,31,07,08,12.30
2016,05,31,07,09,12.30
2016,05,31,07,10,12.40
2016,05,31,07,11,12.50
2016,05,31,07,12,12.50
2016,05,31,07,13,12.60
2016,05,31,07,14,12.60
2016,05,31,07,15,12.70
2016,05,31,07,16,12.70
2016,05,31,07,17,12.80
2016,05,31,07,18,12.90
2016,05,31,07,19,12.90
2016,05,31,07,20,13.00
2016,05,31,07,21,13.10
2016,05,31,07,22,13.20
2016,05,31,07,23,13.30
2016,05,31,07,24,13.30
2016,05,31,07,25,13.40
2016,05,31,07,26,13.50
2016,05,31,07,27,13.50
2016,05,31,07,28,13.60
2016,05,31,07,29,13.70
2016,05,31,07,30,13.80
2016,05,31,07,31,13.80
2016,05,31,07,32,13.90
2016,05,31,07,33,14.00
2016,05,31,07,34,14.00
2016,05,31,07,35,14.10
2016,05,31,07,36,14.20
2016,05,31,07,37,14.30
2016,05,31,07,38,14.30
2016,05,31,07,39,14.40
2016,05,31,07,40,14.50
2016,05,31,07,41,14.50
2016,05,31,07,42,14.60
2016,05,31,07,43,14.60
2016,05,31,07,44,14.70
2016,05,31,07,45,14.80
2016,05,31,07,46,14.80
2016,05,31,07,47,14.90
2016,05,31,07,48,14.90
2016,05,31,07,49,15.00
2016,05,31,07,50,15.10
2016,05,31,07,51,15.10
2016,05,31,07,52,15.20
2016,05,31,07,53,15.30
2016,05,31,07,54,15.40
2016,05,31,07,55,15.40
2016,05,31,07,56,15.50
2016,05,31,07,57,15.60
2016,05,31,07,58,15.70
2016,05,31,07,59,15.70
2016,05,31,08,00,15.80
2016,05,31,08,01,15.80
2016,05,31,08,02,15.90
2016,05,31,08,03,15.90
2016,05,31,08,04,16.00
2016,05,31,08,05,16.00
2016,05,31,08,06,16.10
2016,05,31,08,07,16.10
2016,05,31,08,08,16.10
2016,05,31,08,09,16.20
2016,05,31,08,10,16.20
2016,05,31,08,11,16.30
2016,05,31,08,12,16.30
2016,05,31,08,13,16.40
2016,05,31,08,14,16.40
2016,05,31,08,15,16.50
2016,05,31,08,16,16.50
2016,05,31,08,17,16.60
2016,05,31,08,18,16.60
2016,05,31,08,19,16.60
2016,05,31,08,20,16.70
2016,05,31,08,21,16.70
2016,05,31,08,22,16.80
2016,05,31,08,23,16.80
2016,05,31,08,24,16.90
2016,05,31,08,25,16.90
2016,05,31,08,26,17.00
2016,05,31,08,27,17.00
2016,05,31,08,28,17.10
2016,05,31,08,29,17.10
2016,05,31,08,30,17.10
2016,05,31,08,31,17.20
2016,05,31,08,32,17.20
2016,05,31,08,33,17.30
2016,05,31,08,34,17.40
2016,05,31,08,35,17.40
2016,05,31,08,36,17.50
2016,05,31,08,37,17.50
2016,05,31,08,38,17.60
2016,05,31,08,39,17.60
2016,05,31,08,40,17.70
2016,05,31,08,41,17.80
2016,05,31,08,42,17.90
2016,05,31,08,43,18.00
2016,05,31,08,44,18.00
2016,05,31,08,45,18.10
2016,05,31,08,46,18.10
2016,05,31,08,47,18.10
2016,05,31,08,48,18.00
2016,05,31,08,49,18.00
2016,05,31,08,50,18.00
2016,05,31,08,51,18.00
2016,05,31,08,52,18.10
2016,05,31,08,53,18.10
2016,05,31,08,54,18.10
2016,05,31,08,55,18.20
2016,05,31,08,56,18.20
2016,05,31,08,57,18.20
2016,05,31,08,58,18.30
2016,05,31,08,59,18.30
2016,05,31,09,00,18.30
2016,05,31,09,01,18.30
2016,05,31,09,02,18.30
2016,05,31,09,03,18.40
2016,05,31,09,04,18.40
2016,05,31,09,05,18.40
2016,05,31,09,06,18.40
2016,05,31,09,07,18.50
2016,05,31,09,08,18.50
2016,05,31,09,09,18.60
2016,05,31,09,10,18.60
2016,05,31,09,11,18.70
2016,05,31,09,12,18.70
2016,05,31,09,13,18.80
2016,05,31,09,14,18.80
2016,05,31,09,15,18.80
2016,05,31,09,16,18.80
2016,05,31,09,17,18.80
2016,05,31,09,18,18.80
2016,05,31,09,19,18.80
2016,05,31,09,20,18.80
2016,05,31,09,21,18.90
2016,05,31,09,22,18.90
2016,05,31,09,23,19.00
2016,05,31,09,24,19.10
2016,05,31,09,25,19.10
2016,05,31,09,26,19.10
2016,05,31,09,27,19.10
2016,05,31,09,28,19.20
2016,05,31,09,29,19.20
2016,05,31,09,30,19.20
2016,05,31,09,31,19.20
2016,05,31,09,32,19.20
2016,05,31,09,33,19.20
2016,05,31,09,34,19.20
2016,05,31,09,35,19.20
2016,05,31,09,36,19.20
2016,05,31,09,37,19.20
2016,05,31,09,38,19.20
2016,05,31,09,39,19.20
2016,05,31,09,40,19.20
2016,05,31,09,41,19.20
2016,05,31,09,42,19.10
2016,05,31,09,43,19.10
2016,05,31,09,44,19.10
2016,05,31,09,45,19.10
2016,05,31,09,46,19.00
2016,05,31,09,47,19.00
2016,05,31,09,48,19.00
2016,05,31,09,49,19.00
2016,05,31,09,50,19.10
2016,05,31,09,51,19.10
2016,05,31,09,52,19.20
2016,05,31,09,53,19.20
2016,05,31,09,54,19.30
2016,05,31,09,55,19.30
2016,05,31,09,56,19.30
2016,05,31,09,57,19.30
2016,05,31,09,58,19.30
2016,05,31,09,59,19.30
2016,05,31,10,00,19.30
2016,05,31,10,01,19.30
2016,05,31,10,02,19.30
2016,05,31,10,03,19.20
2016,05,31,10,04,19.20
2016,05,31,10,05,19.20
2016,05,31,10,06,19.20
2016,05,31,10,07,19.20
2016,05,31,10,08,19.20
2016,05,31,10,09,19.20
2016,05,31,10,10,19.20
2016,05,31,10,11,19.20
2016,05,31,10,12,19.20
2016,05,31,10,13,19.20
2016,05,31,10,14,19.30
2016,05,31,10,15,19.30
2016,05,31,10,16,19.40
2016,05,31,10,17,19.50
2016,05,31,10,18,19.50
2016,05,31,10,19,19.60
2016,05,31,10,20,19.70
2016,05,31,10,21,19.80
2016,05,31,10,22,19.80
2016,05,31,10,23,19.80
2016,05,31,10,24,19.80
2016,05,31,10,25,19.70
2016,05,31,10,26,19.70
2016,05,31,10,27,19.70
2016,05,31,10,28,19.70
2016,05,31,10,29,19.70
2016,05,31,10,30,19.70
2016,05,31,10,31,19.70
2016,05,31,10,32,19.70
2016,05,31,10,33,19.70
2016,05,31,10,34,19.80
2016,05,31,10,35,19.70
2016,05,31,10,36,19.70
2016,05,31,10,37,19.70
2016,05,31,10,38,19.80
2016,05,31,10,39,19.80
2016,05,31,10,40,19.80
2016,05,31,10,41,19.90
2016,05,31,10,42,20.00
2016,05,31,10,43,20.10
2016,05,31,10,44,20.20
2016,05,31,10,45,20.30
2016,05,31,10,46,20.30
2016,05,31,10,47,20.40
2016,05,31,10,48,20.50
2016,05,31,10,49,20.50
2016,05,31,10,50,20.60
2016,05,31,10,51,20.60
2016,05,31,10,52,20.70
2016,05,31,10,53,20.80
2016,05,31,10,54,20.90
2016,05,31,10,55,21.00
2016,05,31,10,56,21.10
2016,05,31,10,57,21.20
2016,05,31,10,58,21.20
2016,05,31,10,59,21.10
2016,05,31,11,00,21.10
2016,05,31,11,01,21.10
2016,05,31,11,02,21.00
2016,05,31,11,03,21.10
2016,05,31,11,04,21.10
2016,05,31,11,05,21.10
2016,05,31,11,06,21.10
2016,05,31,11,07,21.10
2016,05,31,11,08,21.20
2016,05,31,11,09,21.30
2016,05,31,11,10,21.30
2016,05,31,11,11,21.40
2016,05,31,11,12,21.40
2016,05,31,11,13,21.40
2016,05,31,11,14,21.50
2016,05,31,11,15,21.50
2016,05,31,11,16,21.40
2016,05,31,11,17,21.30
2016,05,31,11,18,21.20
2016,05,31,11,19,21.10
2016,05,31,11,20,21.10
2016,05,31,11,21,21.00
2016,05,31,11,22,20.90
2016,05,31,11,23,20.90
2016,05,31,11,24,20.80
2016,05,31,11,25,20.80
2016,05,31,11,26,20.70
2016,05,31,11,27,20.70
2016,05,31,11,28,20.70
2016,05,31,11,29,20.60
2016,05,31,11,30,20.60
2016,05,31,11,31,20.60
2016,05,31,11,32,20.60
2016,05,31,11,33,20.60
2016,05,31,11,34,20.70
2016,05,31,11,35,20.70
2016,05,31,11,36,20.70
2016,05,31,11,37,20.80
2016,05,31,11,38,20.80
2016,05,31,11,39,20.80
2016,05,31,11,40,20.90
2016,05,31,11,41,20.90
2016,05,31,11,42,21.00
2016,05,31,11,43,21.10
2016,05,31,11,44,21.10
2016,05,31,11,45,21.20
2016,05,31,11,46,21.20
2016,05,31,11,47,21.30
2016,05,31,11,48,21.30
2016,05,31,11,49,21.30
2016,05,31,11,50,21.30
2016,05,31,11,51,21.30
2016,05,31,11,52,21.30
2016,05,31,11,53,21.30
2016,05,31,11,54,21.30
2016,05,31,11,55,21.30
2016,05,31,11,56,21.20
2016,05,31,11,57,21.20
2016,05,31,11,58,21.20
2016,05,31,11,59,21.30
2016,05,31,12,00,21.40
2016,05,31,12,01,21.40
2016,05,31,12,02,21.50
2016,05,31,12,03,21.60
2016,05,31,12,04,21.60
2016,05,31,12,05,21.70
2016,05,31,12,06,21.70
2016,05,31,12,07,21.70
2016,05,31,12,08,21.70
2016,05,31,12,09,21.80
2016,05,31,12,10,21.80
2016,05,31,12,11,21.80
2016,05,31,12,12,21.80
2016,05,31,12,13,21.80
2016,05,31,12,14,21.80
2016,05,31,12,15,21.70
2016,05,31,12,16,21.70
2016,05,31,12,17,21.70
2016,05,31,12,18,21.70
2016,05,31,12,19,21.70
2016,05,31,12,20,21.80
2016,05,31,12,21,21.70
2016,05,31,12,22,21.70
2016,05,31,12,23,21.70
2016,05,31,12,24,21.70
2016,05,31,12,25,21.60
2016,05,31,12,26,21.60
2016,05,31,12,27,21.50
2016,05,31,12,28,21.40
2016,05,31,12,29,21.50
2016,05,31,12,30,21.50
2016,05,31,12,31,21.60
2016,05,31,12,32,21.60
2016,05,31,12,33,21.60
2016,05,31,12,34,21.70
2016,05,31,12,35,21.90
2016,05,31,12,36,22.00
2016,05,31,12,37,22.00
2016,05,31,12,38,22.10
2016,05,31,12,39,22.10
2016,05,31,12,40,22.10
2016,05,31,12,41,22.10
2016,05,31,12,42,22.10
2016,05,31,12,43,22.10
2016,05,31,12,44,22.10
2016,05,31,12,45,22.20
2016,05,31,12,46,22.30
2016,05,31,12,47,22.40
2016,05,31,12,48,22.40
2016,05,31,12,49,22.40
2016,05,31,12,50,22.50
2016,05,31,12,51,22.50
2016,05,31,12,52,22.50
2016,05,31,12,53,22.50
2016,05,31,12,54,22.50
2016,05,31,12,55,22.60
2016,05,31,12,56,22.60
2016,05,31,12,57,22.60
2016,05,31,12,58,22.70
2016,05,31,12,59,22.70
2016,05,31,13,00,22.80
2016,05,31,13,01,23.00
2016,05,31,13,02,23.10
2016,05,31,13,03,23.20
2016,05,31,13,04,23.30
2016,05,31,13,05,23.30
2016,05,31,13,06,23.30
2016,05,31,13,07,23.30
2016,05,31,13,08,23.30
2016,05,31,13,09,23.30
2016,05,31,13,10,23.30
2016,05,31,13,11,23.40
2016,05,31,13,12,23.40
2016,05,31,13,13,23.40
2016,05,31,13,14,23.40
2016,05,31,13,15,23.40
2016,05,31,13,16,23.30
2016,05,31,13,17,23.30
2016,05,31,13,18,23.30
2016,05,31,13,19,23.30
2016,05,31,13,20,23.30
2016,05,31,13,21,23.30
2016,05,31,13,22,23.30
2016,05,31,13,23,23.40
2016,05,31,13,24,23.40
2016,05,31,13,25,23.40
2016,05,31,13,26,23.40
2016,05,31,13,27,23.50
2016,05,31,13,28,23.60
2016,05,31,13,29,23.60
2016,05,31,13,30,23.60
2016,05,31,13,31,23.80
2016,05,31,13,32,23.90
2016,05,31,13,33,23.90
2016,05,31,13,34,23.90
2016,05,31,13,35,24.00
2016,05,31,13,36,24.00
2016,05,31,13,37,24.00
2016,05,31,13,38,23.90
2016,05,31,13,39,23.90
2016,05,31,13,40,23.90
2016,05,31,13,41,24.00
2016,05,31,13,42,24.10
2016,05,31,13,43,24.20
2016,05,31,13,44,24.20
2016,05,31,13,45,24.30
2016,05,31,13,46,24.30
2016,05,31,13,47,24.30
2016,05,31,13,48,24.30
2016,05,31,13,49,24.20
2016,05,31,13,50,24.20
2016,05,31,13,51,24.30
2016,05,31,13,52,24.30
2016,05,31,13,53,24.40
2016,05,31,13,54,24.40
2016,05,31,13,55,24.50
2016,05,31,13,56,24.50
2016,05,31,13,57,24.60
2016,05,31,13,58,24.70
2016,05,31,13,59,24.80
2016,05,31,14,00,24.90
2016,05,31,14,01,25.00
2016,05,31,14,02,25.10
2016,05,31,14,03,25.10
2016,05,31,14,04,25.20
2016,05,31,14,05,25.20
2016,05,31,14,06,25.30
2016,05,31,14,07,25.30
2016,05,31,14,08,25.40
2016,05,31,14,09,25.50
2016,05,31,14,10,25.60
2016,05,31,14,11,25.60
2016,05,31,14,12,25.60
2016,05,31,14,13,25.50
2016,05,31,14,14,25.40
2016,05,31,14,15,25.50
2016,05,31,14,16,25.50
2016,05,31,14,17,25.60
2016,05,31,14,18,25.70
2016,05,31,14,19,25.70
2016,05,31,14,20,25.70
2016,05,31,14,21,25.60
2016,05,31,14,22,25.50
2016,05,31,14,23,25.30
2016,05,31,14,24,25.20
2016,05,31,14,25,25.20
2016,05,31,14,26,25.20
2016,05,31,14,27,25.30
2016,05,31,14,28,25.30
2016,05,31,14,29,25.30
2016,05,31,14,30,25.20
2016,05,31,14,31,25.20
2016,05,31,14,32,25.20
2016,05,31,14,33,25.20
2016,05,31,14,34,25.20
2016,05,31,14,35,25.20
2016,05,31,14,36,25.20
2016,05,31,14,37,25.20
2016,05,31,14,38,25.20
2016,05,31,14,39,25.30
2016,05,31,14,40,25.30
2016,05,31,14,41,25.40
2016,05,31,14,42,25.50
2016,05,31,14,43,25.60
2016,05,31,14,44,25.60
2016,05,31,14,45,25.50
2016,05,31,14,46,25.50
2016,05,31,14,47,25.50
2016,05,31,14,48,25.40
2016,05,31,14,49,25.30
2016,05,31,14,50,25.30
2016,05,31,14,51,25.20
2016,05,31,14,52,25.20
2016,05,31,14,53,25.20
2016,05,31,14,54,25.20
2016,05,31,14,55,25.20
2016,05,31,14,56,25.20
2016,05,31,14,57,25.10
2016,05,31,14,58,25.00
2016,05,31,14,59,25.00
2016,05,31,15,00,24.90
2016,05,31,15,01,24.80
2016,05,31,15,02,24.70
2016,05,31,15,03,24.60
2016,05,31,15,04,24.60
2016,05,31,15,05,24.50
2016,05,31,15,06,24.50
2016,05,31,15,07,24.40
2016,05,31,15,08,24.40
2016,05,31,15,09,24.40
2016,05,31,15,10,24.40
2016,05,31,15,11,24.40
2016,05,31,15,12,24.40
2016,05,31,15,13,24.40
2016,05,31,15,14,24.40
2016,05,31,15,15,24.40
2016,05,31,15,16,24.50
2016,05,31,15,17,24.50
2016,05,31,15,18,24.50
2016,05,31,15,19,24.60
2016,05,31,15,20,24.60
2016,05,31,15,21,24.60
2016,05,31,15,22,24.40
2016,05,31,15,23,24.40
2016,05,31,15,24,24.30
2016,05,31,15,25,24.20
2016,05,31,15,26,24.20
2016,05,31,15,27,24.10
2016,05,31,15,28,24.10
2016,05,31,15,29,24.10
2016,05,31,15,30,24.00
2016,05,31,15,31,23.90
2016,05,31,15,32,23.80
2016,05,31,15,33,23.80
2016,05,31,15,34,23.70
2016,05,31,15,35,23.70
2016,05,31,15,36,23.70
2016,05,31,15,37,23.70
2016,05,31,15,38,23.70
2016,05,31,15,39,23.70
2016,05,31,15,40,23.70
2016,05,31,15,41,23.70
2016,05,31,15,42,23.70
2016,05,31,15,43,23.70
2016,05,31,15,44,23.70
2016,05,31,15,45,23.80
2016,05,31,15,46,23.80
2016,05,31,15,47,23.80
2016,05,31,15,48,23.80
2016,05,31,15,49,23.80
2016,05,31,15,50,23.80
2016,05,31,15,51,23.80
2016,05,31,15,52,23.80
2016,05,31,15,53,23.80
2016,05,31,15,54,23.80
2016,05,31,15,55,23.80
2016,05,31,15,56,23.80
2016,05,31,15,57,23.70
2016,05,31,15,58,23.70
2016,05,31,15,59,23.70
2016,05,31,16,00,23.70
2016,05,31,16,01,23.70
2016,05,31,16,02,23.70
2016,05,31,16,03,23.70
2016,05,31,16,04,23.70
2016,05,31,16,05,23.80
2016,05,31,16,06,23.80
2016,05,31,16,07,23.80
2016,05,31,16,08,23.80
2016,05,31,16,09,23.80
2016,05,31,16,10,23.80
2016,05,31,16,11,23.80
2016,05,31,16,12,23.80
2016,05,31,16,13,23.80
2016,05,31,16,14,23.80
2016,05,31,16,15,23.80
2016,05,31,16,16,23.80
2016,05,31,16,17,23.80
2016,05,31,16,18,23.70
2016,05,31,16,19,23.70
2016,05,31,16,20,23.70
2016,05,31,16,21,23.70
2016,05,31,16,22,23.70
2016,05,31,16,23,23.70
2016,05,31,16,24,23.70
2016,05,31,16,25,23.80
2016,05,31,16,26,23.80
2016,05,31,16,27,23.80
2016,05,31,16,28,23.80
2016,05,31,16,29,23.80
2016,05,31,16,30,23.90
2016,05,31,16,31,23.90
2016,05,31,16,32,23.90
2016,05,31,16,33,23.90
2016,05,31,16,34,23.90
2016,05,31,16,35,23.90
2016,05,31,16,36,23.80
2016,05,31,16,37,23.80
2016,05,31,16,38,23.80
2016,05,31,16,39,23.80
2016,05,31,16,40,23.90
2016,05,31,16,41,23.90
2016,05,31,16,42,23.90
2016,05,31,16,43,23.90
2016,05,31,16,44,24.00
2016,05,31,16,45,24.00
2016,05,31,16,46,24.00
2016,05,31,16,47,24.00
2016,05,31,16,48,24.00
2016,05,31,16,49,24.00
2016,05,31,16,50,24.00
2016,05,31,16,51,24.00
2016,05,31,16,52,24.00
2016,05,31,16,53,24.10
2016,05,31,16,54,24.10
2016,05,31,16,55,24.20
2016,05,31,16,56,24.20
2016,05,31,16,57,24.20
2016,05,31,16,58,24.20
2016,05,31,16,59,24.20
2016,05,31,17,00,24.20
2016,05,31,17,01,24.20
2016,05,31,17,02,24.20
2016,05,31,17,03,24.20
2016,05,31,17,04,24.20
2016,05,31,17,05,24.30
2016,05,31,17,06,24.30
2016,05,31,17,07,24.30
2016,05,31,17,08,24.30
2016,05,31,17,09,24.30
2016,05,31,17,10,24.30
2016,05,31,17,11,24.30
2016,05,31,17,12,24.30
2016,05,31,17,13,24.30
2016,05,31,17,14,24.30
2016,05,31,17,15,24.20
2016,05,31,17,16,24.20
2016,05,31,17,17,24.20
2016,05,31,17,18,24.20
2016,05,31,17,19,24.20